Location: Newark
(45.5000°N, 11.4167°E)
Time: 20:27:13
(UTC+00:00)

Explorer 11/Cluster Stage 4 - Pass Details

Date: 20 August 2019
Orbit: 467 x 1259 km, 28.8° (Epoch: 22 October)

Event Time Altitude Azimuth Distance (km) Brightness Sun altitude
Rises 13:44:55 0° 247° (WSW) 4,083 11.0 44.6°
Reaches altitude 10° 13:48:55 10° 230° (SW) 3,011 10.6 44.0°
Maximum altitude 13:53:38 18° 191° (S) 2,294 9.7 43.3°
Drops below altitude 10° 13:57:54 10° 150° (SSE) 2,659 9.4 42.7°
Sets 14:01:08 0° 132° (SE) 3,443 9.7 42.2°
